ASA197 PANC-PAKT

Flight info

Callsign ASA197
Flight time 1h 47m
Altitude 35000
Route LAIRE DOOZI
Aircraft B738/M-SDE2E3FGHIRWXY/LB1

Departure

Time 2026-05-06 01:48
Airport Ted Stevens Anchorage International Airport (PANC)

Arrival

Time 2026-05-06 03:35
Airport Ketchikan International Airport (PAKT)
Time Latitude Longitude Altitude Speed Heading
2026-05-06 00:39 61.17766 -149.98877 119 ft 0 kts 335°
2026-05-06 01:23 61.17746 -149.98859 116 ft 4 kts 338°
2026-05-06 01:24 61.17722 -149.98835 118 ft 4 kts 321°
2026-05-06 01:24 61.17707 -149.98796 117 ft 4 kts 278°
2026-05-06 01:24 61.17708 -149.98767 117 ft 0 kts 250°
2026-05-06 01:36 61.17707 -149.98768 117 ft 1 kts 249°
2026-05-06 01:36 61.17701 -149.98800 118 ft 4 kts 249°
2026-05-06 01:36 61.17686 -149.98883 119 ft 8 kts 251°
2026-05-06 01:37 61.17666 -149.98994 118 ft 8 kts 243°
2026-05-06 01:37 61.17624 -149.99062 116 ft 8 kts 191°
2026-05-06 01:37 61.17571 -149.99041 116 ft 8 kts 159°
2026-05-06 01:37 61.17523 -149.98999 116 ft 7 kts 157°
2026-05-06 01:38 61.17476 -149.98961 115 ft 7 kts 159°
2026-05-06 01:38 61.17437 -149.98931 116 ft 7 kts 159°
2026-05-06 01:38 61.17436 -149.98930 116 ft 0 kts 159°
2026-05-06 01:39 61.17422 -149.98920 116 ft 4 kts 161°
2026-05-06 01:39 61.17387 -149.98896 117 ft 6 kts 164°
2026-05-06 01:39 61.17337 -149.98864 117 ft 9 kts 162°
2026-05-06 01:39 61.17276 -149.98816 115 ft 10 kts 158°
2026-05-06 01:40 61.17206 -149.98766 118 ft 11 kts 162°
2026-05-06 01:40 61.17138 -149.98677 115 ft 12 kts 127°
2026-05-06 01:40 61.17118 -149.98509 119 ft 13 kts 92°
2026-05-06 01:40 61.17118 -149.98329 116 ft 12 kts 90°
2026-05-06 01:41 61.17118 -149.98154 119 ft 12 kts 90°
2026-05-06 01:41 61.17118 -149.97984 118 ft 12 kts 90°
2026-05-06 01:41 61.17118 -149.97818 118 ft 11 kts 90°
2026-05-06 01:41 61.17117 -149.97656 119 ft 11 kts 90°
2026-05-06 01:42 61.17118 -149.97499 117 ft 11 kts 87°
2026-05-06 01:42 61.17123 -149.97345 117 ft 11 kts 85°
2026-05-06 01:42 61.17127 -149.97193 119 ft 11 kts 88°
2026-05-06 01:42 61.17128 -149.97032 119 ft 11 kts 90°
2026-05-06 01:43 61.17128 -149.96860 119 ft 12 kts 90°
2026-05-06 01:43 61.17128 -149.96682 119 ft 12 kts 90°
2026-05-06 01:43 61.17128 -149.96504 119 ft 12 kts 90°
2026-05-06 01:43 61.17128 -149.96332 119 ft 12 kts 89°
2026-05-06 01:44 61.17129 -149.96163 119 ft 12 kts 90°
2026-05-06 01:44 61.17129 -149.96000 119 ft 11 kts 90°
2026-05-06 01:44 61.17128 -149.95839 119 ft 11 kts 90°
2026-05-06 01:44 61.17129 -149.95673 119 ft 11 kts 90°
2026-05-06 01:45 61.17128 -149.95512 119 ft 11 kts 91°
2026-05-06 01:45 61.17127 -149.95349 119 ft 12 kts 90°
2026-05-06 01:45 61.17127 -149.95174 119 ft 12 kts 90°
2026-05-06 01:45 61.17127 -149.94991 119 ft 12 kts 89°
2026-05-06 01:46 61.17118 -149.94887 116 ft 0 kts 117°
2026-05-06 01:46 61.17111 -149.94874 116 ft 5 kts 142°
2026-05-06 01:46 61.17043 -149.94847 118 ft 14 kts 195°
2026-05-06 01:47 61.16982 -149.95062 121 ft 24 kts 265°
2026-05-06 01:47 61.16980 -149.95908 118 ft 97 kts 269°
2026-05-06 01:47 61.16975 -149.97785 120 ft 161 kts 268°
2026-05-06 01:47 61.17003 -150.00336 578 ft 183 kts 271°
2026-05-06 01:48 61.17052 -150.02938 1600 ft 180 kts 270°
2026-05-06 01:48 61.17068 -150.05519 2563 ft 180 kts 269°
2026-05-06 01:48 61.17081 -150.08189 3311 ft 191 kts 269°
2026-05-06 01:48 61.17097 -150.10933 3875 ft 190 kts 269°
2026-05-06 01:49 61.17159 -150.17447 4433 ft 185 kts 269°
2026-05-06 01:49 61.17204 -150.23755 5192 ft 194 kts 255°
2026-05-06 01:49 61.16505 -150.26126 5625 ft 206 kts 211°
2026-05-06 01:49 61.15078 -150.26868 5865 ft 228 kts 170°
2026-05-06 01:50 61.13614 -150.25321 6208 ft 252 kts 133°
2026-05-06 01:50 61.12155 -150.20679 7326 ft 266 kts 116°
2026-05-06 01:50 61.09886 -150.08151 10248 ft 281 kts 110°
2026-05-06 01:50 61.09215 -150.04200 10586 ft 305 kts 111°
2026-05-06 01:51 61.08653 -150.00979 10751 ft 324 kts 111°
2026-05-06 01:51 61.07833 -149.96385 10975 ft 348 kts 111°
2026-05-06 01:51 61.04581 -149.78887 13456 ft 370 kts 112°
2026-05-06 01:51 61.03194 -149.71662 14451 ft 376 kts 113°
2026-05-06 01:52 61.02548 -149.68327 14913 ft 379 kts 113°
2026-05-06 01:52 61.01562 -149.63251 15581 ft 384 kts 114°
2026-05-06 01:52 61.00556 -149.58106 16209 ft 389 kts 114°
2026-05-06 01:52 60.99537 -149.52891 16795 ft 395 kts 114°
2026-05-06 01:53 60.98502 -149.47606 17401 ft 401 kts 114°
2026-05-06 01:53 60.97447 -149.42246 17996 ft 406 kts 116°
2026-05-06 01:53 60.96274 -149.36964 18676 ft 407 kts 114°
2026-05-06 01:53 60.95259 -149.31476 19169 ft 413 kts 111°
2026-05-06 01:54 60.94243 -149.25948 19788 ft 414 kts 112°
2026-05-06 01:54 60.93174 -149.20427 20359 ft 417 kts 113°
2026-05-06 01:54 60.92071 -149.14877 20856 ft 422 kts 114°
2026-05-06 01:54 60.90946 -149.09267 21342 ft 427 kts 113°
2026-05-06 01:55 60.89812 -149.03591 21771 ft 433 kts 114°
2026-05-06 01:55 60.88658 -148.97875 22387 ft 432 kts 114°
2026-05-06 01:55 60.87508 -148.92196 23120 ft 430 kts 115°
2026-05-06 01:55 60.86354 -148.86512 23585 ft 433 kts 115°
2026-05-06 01:56 60.85188 -148.80776 23923 ft 438 kts 115°
2026-05-06 01:56 60.84010 -148.74989 24260 ft 442 kts 115°
2026-05-06 01:56 60.82820 -148.69146 24632 ft 446 kts 115°
2026-05-06 01:56 60.81621 -148.63268 25004 ft 449 kts 115°
2026-05-06 01:57 60.80410 -148.57348 25355 ft 452 kts 115°
2026-05-06 01:57 60.79189 -148.51400 25695 ft 455 kts 115°
2026-05-06 01:57 60.77957 -148.45412 26038 ft 458 kts 115°
2026-05-06 01:57 60.76714 -148.39390 26371 ft 461 kts 115°
2026-05-06 01:58 60.75460 -148.33335 26688 ft 464 kts 116°
2026-05-06 01:58 60.74196 -148.27245 26996 ft 467 kts 116°
2026-05-06 01:58 60.72919 -148.21117 27299 ft 470 kts 116°
2026-05-06 01:58 60.71631 -148.14954 27590 ft 473 kts 116°
2026-05-06 01:59 60.70334 -148.08761 27870 ft 476 kts 116°
2026-05-06 01:59 60.69024 -148.02529 28150 ft 479 kts 116°
2026-05-06 01:59 60.67703 -147.96264 28425 ft 482 kts 116°
2026-05-06 01:59 60.66374 -147.89975 28746 ft 483 kts 116°
2026-05-06 02:00 60.65041 -147.83690 29130 ft 483 kts 116°
2026-05-06 02:00 60.63721 -147.77482 29473 ft 484 kts 116°
2026-05-06 02:00 60.62359 -147.71098 29777 ft 486 kts 117°
2026-05-06 02:00 60.61024 -147.64860 30047 ft 488 kts 117°
2026-05-06 02:01 60.59667 -147.58538 30399 ft 487 kts 117°
2026-05-06 02:01 60.58312 -147.52242 30791 ft 485 kts 117°
2026-05-06 02:01 60.56960 -147.45976 31169 ft 483 kts 117°
2026-05-06 02:01 60.55608 -147.39734 31503 ft 483 kts 117°
2026-05-06 02:02 60.54251 -147.33489 31803 ft 483 kts 117°
2026-05-06 02:02 60.52890 -147.27245 32118 ft 482 kts 117°
2026-05-06 02:02 60.51531 -147.21030 32452 ft 481 kts 117°
2026-05-06 02:02 60.50173 -147.14836 32743 ft 481 kts 118°
2026-05-06 02:03 60.48809 -147.08638 32960 ft 482 kts 118°
2026-05-06 02:03 60.47437 -147.02419 33239 ft 483 kts 118°
2026-05-06 02:03 60.46065 -146.96216 33601 ft 481 kts 118°
2026-05-06 02:03 60.44699 -146.90051 33942 ft 479 kts 118°
2026-05-06 02:04 60.43331 -146.83898 34179 ft 479 kts 118°
2026-05-06 02:04 60.41959 -146.77750 34383 ft 480 kts 118°
2026-05-06 02:04 60.40583 -146.71603 34588 ft 480 kts 118°
2026-05-06 02:04 60.39202 -146.65450 34803 ft 480 kts 118°
2026-05-06 02:05 60.36428 -146.53147 34863 ft 482 kts 118°
2026-05-06 02:05 60.33638 -146.40840 34881 ft 481 kts 118°
2026-05-06 02:06 60.30840 -146.28565 34879 ft 481 kts 118°
2026-05-06 02:06 60.28033 -146.16328 34885 ft 481 kts 119°
2026-05-06 02:07 60.25237 -146.04203 34879 ft 480 kts 119°
2026-05-06 02:07 60.22394 -145.91949 34865 ft 480 kts 119°
2026-05-06 02:08 60.19575 -145.79865 34879 ft 480 kts 120°
2026-05-06 02:08 60.16725 -145.67717 34886 ft 481 kts 120°
2026-05-06 02:09 60.13862 -145.55581 34891 ft 482 kts 120°
2026-05-06 02:09 60.10980 -145.43436 34887 ft 482 kts 120°
2026-05-06 02:10 60.08086 -145.31305 34878 ft 482 kts 120°
2026-05-06 02:10 60.05185 -145.19212 34884 ft 482 kts 120°
2026-05-06 02:11 60.02275 -145.07149 34886 ft 482 kts 120°
2026-05-06 02:11 59.99349 -144.95086 34894 ft 482 kts 120°
2026-05-06 02:12 59.96411 -144.83043 34892 ft 482 kts 121°
2026-05-06 02:12 59.93482 -144.71101 34894 ft 483 kts 121°
2026-05-06 02:13 59.90512 -144.59059 34887 ft 484 kts 121°
2026-05-06 02:13 59.87536 -144.47059 34898 ft 484 kts 121°
2026-05-06 02:14 59.84544 -144.35058 34909 ft 484 kts 121°
2026-05-06 02:14 59.81535 -144.23056 34915 ft 485 kts 121°
2026-05-06 02:15 59.78515 -144.11070 34913 ft 485 kts 121°
2026-05-06 02:15 59.75488 -143.99126 34916 ft 485 kts 122°
2026-05-06 02:16 59.72449 -143.87197 34916 ft 484 kts 122°
2026-05-06 02:16 59.69408 -143.75324 34920 ft 483 kts 122°
2026-05-06 02:17 59.66363 -143.63497 34895 ft 482 kts 122°
2026-05-06 02:17 59.63309 -143.51704 34918 ft 482 kts 122°
2026-05-06 02:18 59.60265 -143.40007 34936 ft 482 kts 122°
2026-05-06 02:18 59.57188 -143.28249 34938 ft 482 kts 122°
2026-05-06 02:19 59.54095 -143.16490 34944 ft 483 kts 122°
2026-05-06 02:19 59.50988 -143.04736 34919 ft 484 kts 123°
2026-05-06 02:20 59.46305 -142.87136 34949 ft 484 kts 123°
2026-05-06 02:21 59.43165 -142.75416 34956 ft 485 kts 123°
2026-05-06 02:21 59.40007 -142.63685 34948 ft 486 kts 123°
2026-05-06 02:22 59.36839 -142.51980 34930 ft 485 kts 123°
2026-05-06 02:22 59.33667 -142.40317 34951 ft 485 kts 123°
2026-05-06 02:23 59.30486 -142.28686 34966 ft 485 kts 123°
2026-05-06 02:23 59.27292 -142.17066 34964 ft 484 kts 124°
2026-05-06 02:24 59.24117 -142.05571 34966 ft 484 kts 124°
2026-05-06 02:24 59.20912 -141.94025 34962 ft 483 kts 124°
2026-05-06 02:25 59.17704 -141.82530 34964 ft 482 kts 124°
2026-05-06 02:25 59.14487 -141.71062 34978 ft 482 kts 124°
2026-05-06 02:26 59.11263 -141.59626 34988 ft 482 kts 124°
2026-05-06 02:26 59.08029 -141.48207 34983 ft 481 kts 124°
2026-05-06 02:27 59.04800 -141.36819 34985 ft 481 kts 124°
2026-05-06 02:27 59.01592 -141.25429 34989 ft 481 kts 125°
2026-05-06 02:28 58.98347 -141.14100 34989 ft 480 kts 125°
2026-05-06 02:28 58.95072 -141.02809 34996 ft 480 kts 125°
2026-05-06 02:29 58.91788 -140.91553 34964 ft 480 kts 126°
2026-05-06 02:29 58.88500 -140.80333 34996 ft 479 kts 126°
2026-05-06 02:30 58.85208 -140.69147 35009 ft 479 kts 126°
2026-05-06 02:30 58.81906 -140.57975 35008 ft 479 kts 126°
2026-05-06 02:31 58.78556 -140.46883 35015 ft 478 kts 127°
2026-05-06 02:31 58.75075 -140.35998 34986 ft 476 kts 128°
2026-05-06 02:32 58.71598 -140.25262 35008 ft 475 kts 128°
2026-05-06 02:32 58.68106 -140.14463 35027 ft 475 kts 128°
2026-05-06 02:33 58.64623 -140.03690 35024 ft 475 kts 128°
2026-05-06 02:33 58.63444 -140.00052 35022 ft 475 kts 128°
2026-05-06 02:34 58.57638 -139.82206 35017 ft 473 kts 128°
2026-05-06 02:34 58.54142 -139.71527 35033 ft 473 kts 128°
2026-05-06 02:35 58.50638 -139.60877 35035 ft 473 kts 128°
2026-05-06 02:35 58.47124 -139.50241 35054 ft 473 kts 128°
2026-05-06 02:36 58.43598 -139.39619 35042 ft 473 kts 128°
2026-05-06 02:36 58.40064 -139.29016 35040 ft 473 kts 129°
2026-05-06 02:37 58.36524 -139.18446 35052 ft 473 kts 129°
2026-05-06 02:37 58.32971 -139.07887 35052 ft 474 kts 129°
2026-05-06 02:38 58.29404 -138.97332 35060 ft 475 kts 129°
2026-05-06 02:38 58.26428 -138.88560 35059 ft 475 kts 129°
2026-05-06 02:39 58.22837 -138.78019 35061 ft 475 kts 129°
2026-05-06 02:39 58.19239 -138.67501 35062 ft 475 kts 129°
2026-05-06 02:40 58.15632 -138.57007 35065 ft 475 kts 129°
2026-05-06 02:40 58.12022 -138.46549 35065 ft 475 kts 129°
2026-05-06 02:41 58.08401 -138.36103 35041 ft 474 kts 130°
2026-05-06 02:41 58.04776 -138.25694 35064 ft 474 kts 130°
2026-05-06 02:42 58.01143 -138.15307 35079 ft 474 kts 130°
2026-05-06 02:42 57.97503 -138.04947 35076 ft 474 kts 130°
2026-05-06 02:43 57.93853 -137.94605 35082 ft 474 kts 130°
2026-05-06 02:43 57.90199 -137.84289 35075 ft 473 kts 131°
2026-05-06 02:44 57.86536 -137.73999 35080 ft 474 kts 131°
2026-05-06 02:44 57.82886 -137.63789 35083 ft 474 kts 131°
2026-05-06 02:45 57.79202 -137.53525 35083 ft 475 kts 131°
2026-05-06 02:45 57.75507 -137.43276 35044 ft 475 kts 132°
2026-05-06 02:46 57.71783 -137.32985 35082 ft 474 kts 132°
2026-05-06 02:46 57.68095 -137.22844 35095 ft 474 kts 132°
2026-05-06 02:47 57.64379 -137.12668 35094 ft 475 kts 132°
2026-05-06 02:47 57.60650 -137.02499 35098 ft 475 kts 132°
2026-05-06 02:48 57.56915 -136.92354 35074 ft 474 kts 133°
2026-05-06 02:48 57.53175 -136.82238 35094 ft 474 kts 133°
2026-05-06 02:49 57.49426 -136.72149 35106 ft 474 kts 134°
2026-05-06 02:49 57.47541 -136.67093 34872 ft 478 kts 134°
2026-05-06 02:49 57.45642 -136.62012 34539 ft 478 kts 134°
2026-05-06 02:49 57.43757 -136.56966 34215 ft 474 kts 134°
2026-05-06 02:50 57.41883 -136.51955 33855 ft 472 kts 134°
2026-05-06 02:50 57.40006 -136.46960 33424 ft 473 kts 136°
2026-05-06 02:50 57.38117 -136.41951 33052 ft 474 kts 136°
2026-05-06 02:50 57.36227 -136.36948 32688 ft 474 kts 135°
2026-05-06 02:51 57.34334 -136.31944 32327 ft 475 kts 135°
2026-05-06 02:51 57.32434 -136.26929 31969 ft 476 kts 135°
2026-05-06 02:51 57.30529 -136.21913 31624 ft 477 kts 135°
2026-05-06 02:51 57.28620 -136.16893 31275 ft 478 kts 135°
2026-05-06 02:52 57.26727 -136.11929 30949 ft 479 kts 135°
2026-05-06 02:52 57.24755 -136.06878 30606 ft 477 kts 137°
2026-05-06 02:52 57.22737 -136.02147 30245 ft 475 kts 139°
2026-05-06 02:53 57.18486 -135.92762 29896 ft 481 kts 140°
2026-05-06 02:53 57.16333 -135.88055 29607 ft 476 kts 139°
2026-05-06 02:53 57.14242 -135.83433 29306 ft 463 kts 139°
2026-05-06 02:53 57.12197 -135.78887 29029 ft 459 kts 139°
2026-05-06 02:54 57.10156 -135.74356 28766 ft 461 kts 139°
2026-05-06 02:54 57.08109 -135.69820 28486 ft 462 kts 139°
2026-05-06 02:54 57.06062 -135.65262 28225 ft 463 kts 139°
2026-05-06 02:54 57.04004 -135.60701 27912 ft 464 kts 138°
2026-05-06 02:55 57.01941 -135.56143 27660 ft 464 kts 138°
2026-05-06 02:55 56.99873 -135.51578 27404 ft 465 kts 138°
2026-05-06 02:55 56.97805 -135.47015 27142 ft 466 kts 138°
2026-05-06 02:55 56.95740 -135.42464 26879 ft 461 kts 137°
2026-05-06 02:56 56.93710 -135.37988 26610 ft 454 kts 137°
2026-05-06 02:56 56.91697 -135.33561 26358 ft 451 kts 137°
2026-05-06 02:56 56.89682 -135.29150 26134 ft 452 kts 137°
2026-05-06 02:56 56.87661 -135.24742 25872 ft 452 kts 137°
2026-05-06 02:57 56.85640 -135.20334 25690 ft 454 kts 137°
2026-05-06 02:57 56.83608 -135.15900 25617 ft 457 kts 137°
2026-05-06 02:57 56.81552 -135.11436 25349 ft 460 kts 137°
2026-05-06 02:57 56.79497 -135.06983 25131 ft 458 kts 137°
2026-05-06 02:58 56.77453 -135.02555 24867 ft 456 kts 137°
2026-05-06 02:58 56.75407 -134.98142 24647 ft 456 kts 137°
2026-05-06 02:58 56.73359 -134.93723 24398 ft 456 kts 137°
2026-05-06 02:58 56.71315 -134.89322 24191 ft 455 kts 137°
2026-05-06 02:59 56.69273 -134.84928 23957 ft 454 kts 136°
2026-05-06 02:59 56.67238 -134.80557 23710 ft 451 kts 136°
2026-05-06 02:59 56.65222 -134.76230 23401 ft 443 kts 136°
2026-05-06 02:59 56.63235 -134.71978 23118 ft 441 kts 136°
2026-05-06 03:00 56.61247 -134.67737 22843 ft 440 kts 136°
2026-05-06 03:00 56.59261 -134.63515 22587 ft 439 kts 136°
2026-05-06 03:00 56.57279 -134.59310 22315 ft 438 kts 136°
2026-05-06 03:00 56.55302 -134.55114 22054 ft 437 kts 136°
2026-05-06 03:01 56.53330 -134.50932 21794 ft 436 kts 136°
2026-05-06 03:01 56.51360 -134.46762 21531 ft 435 kts 136°
2026-05-06 03:01 56.49387 -134.42596 21197 ft 436 kts 136°
2026-05-06 03:01 56.47415 -134.38440 20869 ft 435 kts 136°
2026-05-06 03:02 56.45471 -134.34347 20550 ft 434 kts 136°
2026-05-06 03:02 56.43510 -134.30225 20222 ft 431 kts 136°
2026-05-06 03:02 56.41534 -134.26080 19907 ft 429 kts 136°
2026-05-06 03:02 56.39620 -134.22070 19599 ft 426 kts 136°
2026-05-06 03:03 56.37689 -134.18034 19267 ft 424 kts 136°
2026-05-06 03:03 56.35765 -134.14020 18965 ft 421 kts 136°
2026-05-06 03:03 56.33855 -134.10041 18669 ft 419 kts 136°
2026-05-06 03:03 56.31950 -134.06087 18346 ft 418 kts 136°
2026-05-06 03:04 56.30048 -134.02139 18001 ft 416 kts 136°
2026-05-06 03:04 56.28156 -133.98216 17619 ft 414 kts 136°
2026-05-06 03:04 56.26269 -133.94312 17288 ft 413 kts 136°
2026-05-06 03:04 56.24390 -133.90423 16935 ft 411 kts 136°
2026-05-06 03:05 56.22525 -133.86558 16606 ft 408 kts 136°
2026-05-06 03:05 56.20662 -133.82721 16275 ft 407 kts 136°
2026-05-06 03:05 56.18803 -133.78905 15951 ft 406 kts 136°
2026-05-06 03:05 56.16948 -133.75103 15626 ft 404 kts 136°
2026-05-06 03:06 56.15097 -133.71316 15307 ft 403 kts 136°
2026-05-06 03:06 56.13250 -133.67540 14994 ft 402 kts 136°
2026-05-06 03:06 56.11412 -133.63787 14679 ft 400 kts 135°
2026-05-06 03:06 56.09579 -133.60044 14354 ft 399 kts 135°
2026-05-06 03:07 56.07752 -133.56324 14049 ft 397 kts 135°
2026-05-06 03:07 56.05926 -133.52615 13719 ft 396 kts 135°
2026-05-06 03:07 56.04114 -133.48936 13372 ft 393 kts 135°
2026-05-06 03:07 56.02302 -133.45279 13052 ft 391 kts 135°
2026-05-06 03:08 56.00511 -133.41649 12693 ft 388 kts 135°
2026-05-06 03:08 55.98732 -133.38048 12369 ft 385 kts 135°
2026-05-06 03:08 55.96967 -133.34484 12028 ft 381 kts 135°
2026-05-06 03:08 55.95218 -133.30957 11707 ft 378 kts 135°
2026-05-06 03:09 55.93482 -133.27461 11384 ft 375 kts 135°
2026-05-06 03:09 55.91756 -133.23993 11066 ft 372 kts 135°
2026-05-06 03:09 55.90041 -133.20552 10732 ft 370 kts 135°
2026-05-06 03:09 55.88351 -133.17168 10409 ft 360 kts 135°
2026-05-06 03:10 55.86721 -133.13902 10138 ft 343 kts 135°
2026-05-06 03:10 55.85191 -133.10768 9799 ft 332 kts 135°
2026-05-06 03:10 55.83675 -133.07714 9141 ft 329 kts 134°
2026-05-06 03:10 55.82151 -133.04715 8652 ft 317 kts 137°
2026-05-06 03:11 55.80712 -133.01883 8312 ft 303 kts 136°
2026-05-06 03:11 55.79325 -132.99140 7987 ft 292 kts 136°
2026-05-06 03:11 55.78028 -132.96562 7661 ft 276 kts 135°
2026-05-06 03:11 55.76762 -132.94106 7239 ft 263 kts 138°
2026-05-06 03:12 55.75515 -132.91761 6944 ft 261 kts 134°
2026-05-06 03:12 55.74314 -132.89352 6632 ft 261 kts 135°
2026-05-06 03:12 55.73101 -132.86921 6291 ft 265 kts 134°
2026-05-06 03:12 55.71869 -132.84459 5961 ft 269 kts 135°
2026-05-06 03:13 55.70616 -132.81972 5807 ft 270 kts 134°
2026-05-06 03:13 55.69369 -132.79504 5769 ft 267 kts 133°
2026-05-06 03:13 55.68138 -132.77065 5764 ft 266 kts 133°
2026-05-06 03:13 55.67469 -132.75743 5758 ft 266 kts 134°
2026-05-06 03:14 55.66305 -132.73453 5759 ft 265 kts 133°
2026-05-06 03:14 55.65072 -132.71026 5760 ft 266 kts 134°
2026-05-06 03:14 55.63836 -132.68589 5761 ft 266 kts 134°
2026-05-06 03:15 55.62593 -132.66153 5740 ft 267 kts 135°
2026-05-06 03:15 55.61347 -132.63717 5750 ft 266 kts 134°
2026-05-06 03:15 55.60091 -132.61270 5762 ft 276 kts 135°
2026-05-06 03:15 55.58750 -132.58666 5743 ft 299 kts 134°
2026-05-06 03:16 55.57308 -132.55954 5753 ft 301 kts 134°
2026-05-06 03:16 55.55940 -132.53275 5728 ft 286 kts 133°
2026-05-06 03:16 55.54648 -132.50723 5716 ft 272 kts 134°
2026-05-06 03:16 55.53408 -132.48281 5722 ft 265 kts 135°
2026-05-06 03:17 55.52178 -132.45872 5732 ft 264 kts 134°
2026-05-06 03:17 55.50940 -132.43453 5729 ft 267 kts 135°
2026-05-06 03:17 55.49684 -132.41018 5732 ft 268 kts 134°
2026-05-06 03:17 55.48440 -132.38603 5727 ft 265 kts 135°
2026-05-06 03:18 55.47205 -132.36209 5722 ft 263 kts 135°
2026-05-06 03:18 55.45968 -132.33817 5735 ft 265 kts 136°
2026-05-06 03:18 55.44723 -132.31412 5736 ft 266 kts 136°
2026-05-06 03:18 55.43472 -132.28994 5719 ft 267 kts 136°
2026-05-06 03:19 55.42223 -132.26585 5720 ft 266 kts 135°
2026-05-06 03:19 55.40972 -132.24175 5721 ft 266 kts 135°
2026-05-06 03:19 55.39728 -132.21778 5723 ft 265 kts 136°
2026-05-06 03:19 55.38485 -132.19390 5720 ft 265 kts 136°
2026-05-06 03:20 55.36013 -132.14640 5710 ft 265 kts 135°
2026-05-06 03:20 55.34765 -132.12253 5718 ft 265 kts 136°
2026-05-06 03:20 55.33526 -132.09884 5699 ft 259 kts 135°
2026-05-06 03:21 55.32334 -132.07599 5686 ft 247 kts 135°
2026-05-06 03:21 55.31200 -132.05422 5685 ft 236 kts 136°
2026-05-06 03:21 55.30107 -132.03328 5697 ft 233 kts 136°
2026-05-06 03:21 55.29012 -132.01238 5708 ft 232 kts 137°
2026-05-06 03:22 55.27923 -131.99164 5708 ft 231 kts 137°
2026-05-06 03:22 55.26837 -131.97100 5699 ft 230 kts 137°
2026-05-06 03:22 55.25753 -131.95047 5705 ft 229 kts 136°
2026-05-06 03:22 55.24679 -131.92997 5709 ft 228 kts 136°
2026-05-06 03:23 55.23601 -131.90956 5708 ft 228 kts 135°
2026-05-06 03:23 55.22524 -131.88915 5710 ft 228 kts 136°
2026-05-06 03:23 55.21448 -131.86868 5713 ft 229 kts 136°
2026-05-06 03:23 55.20366 -131.84817 5699 ft 229 kts 137°
2026-05-06 03:24 55.19281 -131.82768 5712 ft 230 kts 137°
2026-05-06 03:24 55.18192 -131.80710 5707 ft 231 kts 137°
2026-05-06 03:24 55.17096 -131.78644 5716 ft 232 kts 136°
2026-05-06 03:24 55.15995 -131.76566 5696 ft 233 kts 136°
2026-05-06 03:25 55.14898 -131.74483 5706 ft 232 kts 136°
2026-05-06 03:25 55.13797 -131.72414 5698 ft 232 kts 136°
2026-05-06 03:25 55.12715 -131.70380 5690 ft 231 kts 136°
2026-05-06 03:25 55.11626 -131.68328 5689 ft 230 kts 135°
2026-05-06 03:26 55.10539 -131.66283 5690 ft 229 kts 136°
2026-05-06 03:26 55.09456 -131.64250 5694 ft 229 kts 136°
2026-05-06 03:26 55.08371 -131.62215 5693 ft 232 kts 136°
2026-05-06 03:26 55.07289 -131.59929 5693 ft 258 kts 119°
2026-05-06 03:27 55.06963 -131.56845 5693 ft 268 kts 83°
2026-05-06 03:27 55.07753 -131.53899 5712 ft 273 kts 50°
2026-05-06 03:27 55.09069 -131.51508 5702 ft 274 kts 45°
2026-05-06 03:27 55.09961 -131.49898 5719 ft 270 kts 46°
2026-05-06 03:28 55.11236 -131.47493 5644 ft 269 kts 47°
2026-05-06 03:28 55.12477 -131.45090 5505 ft 263 kts 48°
2026-05-06 03:28 55.13678 -131.42723 5368 ft 258 kts 47°
2026-05-06 03:28 55.15138 -131.41001 5134 ft 255 kts 13°
2026-05-06 03:29 55.16867 -131.41096 4895 ft 251 kts 337°
2026-05-06 03:29 55.18353 -131.42608 4661 ft 246 kts 320°
2026-05-06 03:29 55.19621 -131.44537 4421 ft 233 kts 316°
2026-05-06 03:29 55.20767 -131.46388 4179 ft 215 kts 316°
2026-05-06 03:30 55.21828 -131.48099 3931 ft 200 kts 316°
2026-05-06 03:30 55.22814 -131.49677 3732 ft 184 kts 316°
2026-05-06 03:30 55.23721 -131.51113 3534 ft 167 kts 315°
2026-05-06 03:30 55.24531 -131.52456 3326 ft 154 kts 313°
2026-05-06 03:31 55.25297 -131.53775 3086 ft 153 kts 314°
2026-05-06 03:31 55.26043 -131.55057 2834 ft 146 kts 315°
2026-05-06 03:31 55.26744 -131.56261 2621 ft 143 kts 315°
2026-05-06 03:31 55.27469 -131.57504 2402 ft 149 kts 315°
2026-05-06 03:32 55.28218 -131.58789 2184 ft 152 kts 315°
2026-05-06 03:32 55.28969 -131.60080 1993 ft 150 kts 315°
2026-05-06 03:32 55.29717 -131.61360 1716 ft 148 kts 315°
2026-05-06 03:32 55.30432 -131.62585 1454 ft 138 kts 315°
2026-05-06 03:33 55.31106 -131.63744 1230 ft 131 kts 316°
2026-05-06 03:33 55.31748 -131.64848 1098 ft 129 kts 316°
2026-05-06 03:33 55.32390 -131.65952 1032 ft 126 kts 316°
2026-05-06 03:33 55.33016 -131.67028 1014 ft 126 kts 316°
2026-05-06 03:34 55.33671 -131.68134 774 ft 131 kts 324°
2026-05-06 03:34 55.34336 -131.69310 332 ft 141 kts 319°
2026-05-06 03:34 55.35033 -131.70478 100 ft 131 kts 319°
2026-05-06 03:34 55.35587 -131.71434 97 ft 84 kts 315°
2026-05-06 03:35 55.35844 -131.71879 100 ft 20 kts 317°
2026-05-06 03:35 55.35864 -131.71913 99 ft 3 kts 317°
2026-05-06 03:35 55.35938 -131.72033 99 ft 23 kts 317°
2026-05-06 03:35 55.36075 -131.72264 98 ft 27 kts 316°
2026-05-06 03:36 55.36182 -131.72281 100 ft 14 kts 57°
2026-05-06 03:36 55.36146 -131.72116 96 ft 19 kts 131°
2026-05-06 03:36 55.36108 -131.72044 91 ft 10 kts 132°
2026-05-06 03:36 55.36047 -131.71927 85 ft 16 kts 134°
2026-05-06 03:37 55.35959 -131.71768 72 ft 21 kts 134°
2026-05-06 03:37 55.35854 -131.71578 61 ft 17 kts 133°
2026-05-06 03:37 55.35782 -131.71451 48 ft 10 kts 135°
2026-05-06 03:37 55.35718 -131.71339 47 ft 16 kts 135°
2026-05-06 03:38 55.35665 -131.71245 43 ft 9 kts 135°
2026-05-06 03:38 55.35619 -131.71165 39 ft 8 kts 128°
2026-05-06 03:38 55.35632 -131.71082 41 ft 7 kts 54°
2026-05-06 03:38 55.35655 -131.71042 39 ft 0 kts 44°